DW2845 Weather Reports


Display with metric or nautical units.
time (UTC)temp
F
wind
direction
speed
MPH
gust
MPH
rain 1hr
in
rain 24hr
in
rain mn
in
humidity
%
barometer
mb
20190325061705 35 249 8.0 12.0 0.00 0.03 0.00 71 1022.8
20190325061204 35 240 9.0 12.0 0.00 0.03 0.00 68 1022.6
20190325060705 36 244 10.0 12.0 0.00 0.03 0.00 68 1022.6
20190325060205 35 242 10.0 12.0 0.00 0.03 0.03 69 1022.5
20190325055704 36 246 10.0 12.0 0.00 0.03 0.03 68 1022.5
20190325055205 36 242 9.0 12.0 0.00 0.03 0.03 67 1022.4
20190325054704 36 240 9.0 12.0 0.00 0.03 0.03 70 1022.4
20190325054204 35 239 9.0 12.0 0.00 0.03 0.03 70 1022.3
20190325053704 35 238 9.0 13.0 0.00 0.03 0.03 69 1022.4
20190325053204 36 244 8.0 14.0 0.00 0.03 0.03 69 1022.5
20190325052704 36 254 9.0 14.0 0.00 0.03 0.03 70 1022.4
20190325052204 36 238 8.0 13.0 0.00 0.03 0.03 69 1022.4
20190325051704 37 243 6.0 9.0 0.00 0.03 0.03 71 1022.4
20190325051205 36 234 7.0 10.0 0.00 0.03 0.03 72 1022.3
20190325050705 36 229 8.0 11.0 0.00 0.03 0.03 71 1022.4
20190325050204 36 234 9.0 11.0 0.00 0.03 0.03 74 1022.3
20190325045704 36 228 9.0 12.0 0.00 0.03 0.03 74 1022.3
20190325045204 35 241 9.0 12.0 0.00 0.03 0.03 74 1022.3
20190325044705 36 231 10.0 12.0 0.00 0.03 0.03 72 1022.3
20190325044204 36 242 9.0 13.0 0.00 0.03 0.03 72 1022.3
20190325043704 37 248 9.0 13.0 0.00 0.03 0.03 72 1022.2
20190325043205 37 248 8.0 13.0 0.00 0.03 0.03 73 1022.2
20190325042705 37 245 7.0 9.0 0.00 0.03 0.03 75 1022.2
20190325042205 37 242 5.0 7.0 0.00 0.03 0.03 76 1022.0
20190325041705 37 240 5.0 8.0 0.00 0.03 0.03 76 1022.2
20190325041204 37 242 6.0 8.0 0.00 0.03 0.03 76 1022.0
20190325040705 37 228 6.0 8.0 0.00 0.03 0.03 77 1022.0
20190325040205 37 220 6.0 7.0 0.00 0.03 0.03 77 1021.9
20190325035705 37 223 5.0 7.0 0.00 0.03 0.03 77 1021.9
20190325035204 37 232 5.0 8.0 0.00 0.03 0.03 77 1021.8
20190325034704 38 222 6.0 9.0 0.00 0.03 0.03 75 1021.7
20190325034205 38 230 6.0 11.0 0.00 0.03 0.03 75 1021.6
20190325033704 38 215 8.0 11.0 0.00 0.03 0.03 74 1021.4
20190325033205 39 215 9.0 12.0 0.00 0.03 0.03 75 1021.6
20190325032705 38 225 9.0 15.0 0.00 0.03 0.03 76 1021.6
20190325032204 38 233 10.0 15.0 0.00 0.03 0.03 77 1021.4
20190325031704 37 228 12.0 15.0 0.00 0.03 0.03 78 1021.4
20190325031205 37 238 11.0 13.0 0.00 0.03 0.03 78 1021.6
20190325030704 37 237 10.0 11.0 0.00 0.03 0.03 78 1021.3
20190325030205 37 240 10.0 12.0 0.00 0.03 0.03 78 1021.2
20190325025704 37 237 10.0 13.0 0.00 0.03 0.03 77 1021.1
20190325025204 37 240 10.0 13.0 0.00 0.03 0.03 78 1021.0
20190325024704 37 234 11.0 13.0 0.00 0.03 0.03 78 1021.0
20190325024204 37 247 11.0 13.0 0.00 0.03 0.03 79 1021.0
20190325023705 37 238 10.0 12.0 0.00 0.03 0.03 80 1020.8
20190325023204 37 238 9.0 10.0 0.00 0.03 0.03 80 1020.6
20190325022704 37 242 8.0 10.0 0.00 0.03 0.03 79 1020.7
20190325022205 38 246 8.0 10.0 0.00 0.03 0.03 79 1020.6
20190325021705 38 240 8.0 10.0 0.00 0.03 0.03 79 1020.5
20190325021204 39 246 8.0 9.0 0.00 0.03 0.03 78 1020.4
20190325020704 39 239 6.0 9.0 0.00 0.03 0.03 78 1020.1
20190325020205 40 239 3.0 7.0 0.00 0.03 0.03 77 1020.1
20190325015704 40 296 2.0 4.0 0.00 0.03 0.03 75 1020.0
20190325015204 40 298 2.0 4.0 0.00 0.03 0.03 74 1019.9
20190325014704 41 300 1.0 4.0 0.00 0.03 0.03 72 1019.8
20190325014205 42 302 0.0 3.0 0.00 0.03 0.03 71 1019.6
20190325013704 42 303 1.0 3.0 0.00 0.03 0.03 71 1019.5
20190325013205 42 303 1.0 3.0 0.00 0.03 0.03 70 1019.5
20190325012705 43 303 0.0 2.0 0.00 0.03 0.03 69 1019.5
20190325012205 44 304 0.0 3.0 0.00 0.03 0.03 67 1019.5
20190325011704 44 304 0.0 3.0 0.00 0.03 0.03 65 1019.5
20190325011204 45 304 0.0 3.0 0.00 0.03 0.03 64 1019.4
20190325010704 46 304 0.0 1.0 0.00 0.03 0.03 63 1019.3
20190325010205 46 304 0.0 4.0 0.00 0.03 0.03 62 1019.3
20190325005705 47 304 1.0 4.0 0.00 0.03 0.03 61 1019.4
20190325005205 47 304 2.0 5.0 0.00 0.03 0.03 60 1019.2
20190325004705 48 304 3.0 5.0 0.00 0.03 0.03 59 1019.2
20190325004205 49 307 3.0 5.0 0.00 0.03 0.03 58 1019.2
20190325003704 49 319 3.0 7.0 0.00 0.03 0.03 58 1018.9
20190325003205 48 327 3.0 7.0 0.00 0.03 0.03 59 1018.9
20190325002705 48 337 4.0 10.0 0.00 0.03 0.03 60 1018.9
20190325002205 48 355 5.0 10.0 0.00 0.03 0.03 59 1018.9
20190325001705 48 25 6.0 10.0 0.00 0.03 0.03 61 1018.8
20190325001204 48 342 6.0 9.0 0.00 0.03 0.03 62 1018.8
20190325000704 48 12 6.0 9.0 0.00 0.03 0.03 62 1018.6
20190325000205 48 49 6.0 8.0 0.00 0.03 0.03 60 1018.6
20190324235705 49 45 5.0 8.0 0.00 0.03 0.03 60 1018.4
20190324235205 49 62 3.0 6.0 0.00 0.03 0.03 63 1018.3
20190324234704 49 92 3.0 6.0 0.00 0.03 0.03 63 1018.2
20190324234204 49 90 3.0 6.0 0.00 0.03 0.03 66 1018.2
20190324233705 48 99 3.0 6.0 0.00 0.03 0.03 63 1018.4
20190324233205 47 98 2.0 5.0 0.00 0.03 0.03 69 1018.3
20190324232704 47 105 0.0 3.0 0.00 0.03 0.03 69 1018.6
20190324232204 46 105 1.0 5.0 0.00 0.03 0.03 69 1018.7
20190324231704 46 105 2.0 6.0 0.00 0.03 0.03 69 1018.8
20190324231205 46 105 3.0 7.0 0.00 0.03 0.03 70 1018.7
20190324230704 46 105 4.0 7.0 0.00 0.03 0.03 71 1018.7
20190324230205 46 101 5.0 9.0 0.00 0.03 0.03 71 1018.6
20190324225704 46 92 5.0 10.0 0.00 0.03 0.03 72 1018.6
20190324225205 46 126 5.0 11.0 0.01 0.03 0.03 70 1018.6
20190324224705 46 122 6.0 11.0 0.01 0.03 0.03 70 1018.6
20190324224205 46 119 7.0 11.0 0.02 0.03 0.03 68 1018.7
20190324223704 46 117 7.0 13.0 0.03 0.03 0.03 71 1018.6
20190324223205 46 120 8.0 13.0 0.03 0.03 0.03 71 1018.6
20190324222704 46 113 9.0 14.0 0.03 0.03 0.03 75 1018.6
20190324222204 45 123 10.0 17.0 0.03 0.03 0.03 76 1018.4
20190324221705 44 154 11.0 17.0 0.03 0.03 0.03 77 1018.4
20190324221205 44 143 12.0 17.0 0.03 0.03 0.03 74 1018.4
20190324220705 43 177 11.0 16.0 0.03 0.03 0.03 74 1018.4
20190324220205 43 178 11.0 16.0 0.03 0.03 0.03 75 1018.6
20190324215704 43 201 11.0 18.0 0.03 0.03 0.03 73 1018.6
20190324215204 44 201 10.0 18.0 0.02 0.02 0.02 69 1018.4
20190324214704 45 184 12.0 19.0 0.02 0.02 0.02 61 1018.3
20190324214204 48 232 11.0 19.0 0.00 0.00 0.00 58 1018.0
20190324213704 51 211 8.0 19.0 0.00 0.00 0.00 47 1017.6
20190324213205 52 205 4.0 8.0 0.00 0.00 0.00 37 1017.3
20190324212704 53 55 4.0 11.0 0.00 0.00 0.00 37 1017.1
20190324212204 53 48 5.0 11.0 0.00 0.00 0.00 35 1016.9
20190324211704 53 78 7.0 11.0 0.00 0.00 0.00 36 1016.7
20190324211205 53 36 5.0 11.0 0.00 0.00 0.00 35 1016.6
20190324210704 54 71 6.0 13.0 0.00 0.00 0.00 34 1016.6
20190324210205 55 27 9.0 13.0 0.00 0.00 0.00 34 1016.5
20190324205705 56 325 9.0 13.0 0.00 0.00 0.00 34 1016.4
20190324205204 56 10 6.0 12.0 0.00 0.00 0.00 34 1016.4
20190324204705 55 113 4.0 12.0 0.00 0.00 0.00 36 1016.6
20190324204204 53 98 6.0 13.0 0.00 0.00 0.00 37 1016.6
20190324203705 54 32 8.0 14.0 0.00 0.00 0.00 35 1016.7
20190324203204 55 22 9.0 15.0 0.00 0.00 0.00 36 1016.7
20190324202705 54 53 10.0 16.0 0.00 0.00 0.00 40 1016.7
20190324202205 52 50 11.0 16.0 0.00 0.00 0.00 44 1016.7
20190324201704 51 54 11.0 16.0 0.00 0.00 0.00 41 1017.0
20190324201205 52 70 9.0 15.0 0.00 0.00 0.00 41 1017.0
20190324200704 52 82 10.0 15.0 0.00 0.00 0.00 40 1017.0
20190324200205 52 41 10.0 17.0 0.00 0.00 0.00 39 1017.0
20190324195704 52 58 9.0 17.0 0.00 0.00 0.00 40 1017.1
20190324195205 52 73 8.0 17.0 0.00 0.00 0.00 38 1017.1
20190324194704 53 54 8.0 13.0 0.00 0.00 0.00 39 1017.2
20190324194205 53 70 7.0 11.0 0.00 0.00 0.00 39 1017.3
20190324193704 52 88 7.0 11.0 0.00 0.00 0.00 39 1017.3
20190324193205 52 55 7.0 11.0 0.00 0.00 0.00 38 1017.3
20190324192705 52 60 5.0 9.0 0.00 0.00 0.00 38 1017.3
20190324192205 53 355 5.0 11.0 0.00 0.00 0.00 37 1017.3
20190324191704 53 33 6.0 12.0 0.00 0.00 0.00 36 1017.3
20190324191204 54 36 7.0 12.0 0.00 0.00 0.00 36 1017.5
20190324190705 55 32 7.0 12.0 0.00 0.00 0.00 34 1017.5
20190324190205 56 5 6.0 11.0 0.00 0.00 0.00 35 1017.2
20190324185705 55 99 7.0 11.0 0.00 0.00 0.00 38 1017.3
20190324185205 54 40 7.0 13.0 0.00 0.00 0.00 36 1017.3
20190324184704 54 80 7.0 13.0 0.00 0.00 0.00 35 1017.3
20190324184205 54 101 8.0 13.0 0.00 0.00 0.00 36 1017.5
20190324183704 54 96 8.0 13.0 0.00 0.00 0.00 36 1017.5
20190324183205 54 67 8.0 15.0 0.00 0.00 0.00 35 1017.5
20190324182705 54 101 7.0 15.0 0.00 0.00 0.00 36 1017.5
20190324182205 54 70 6.0 14.0 0.00 0.00 0.00 35 1017.5
20190324181706 54 98 7.0 14.0 0.00 0.00 0.00 33 1017.6
20190324181204 55 98 7.0 14.0 0.00 0.00 0.00 34 1017.5
20190324180705 55 119 7.0 15.0 0.00 0.00 0.00 34 1017.6
20190324180204 55 74 8.0 15.0 0.00 0.00 0.00 31 1017.6
20190324175705 55 73 6.0 15.0 0.00 0.00 0.00 32 1017.7
20190324175204 56 137 7.0 16.0 0.00 0.00 0.00 31 1017.7
20190324174705 56 103 9.0 16.0 0.00 0.00 0.00 32 1017.8
20190324174204 57 67 9.0 16.0 0.00 0.00 0.00 32 1017.8
20190324173704 56 95 10.0 17.0 0.00 0.00 0.00 33 1017.8
20190324173205 56 95 10.0 17.0 0.00 0.00 0.00 32 1017.8
20190324172704 56 63 10.0 16.0 0.00 0.00 0.00 34 1017.8
20190324172205 56 101 9.0 16.0 0.00 0.00 0.00 34 1018.0
20190324171704 55 111 9.0 15.0 0.00 0.00 0.00 35 1018.1
20190324171205 56 94 8.0 14.0 0.00 0.00 0.00 37 1018.1
20190324170705 55 87 7.0 15.0 0.00 0.00 0.00 38 1018.1
20190324170206 55 130 8.0 15.0 0.00 0.00 0.00 40 1018.1
20190324165704 54 108 8.0 14.0 0.00 0.00 0.00 40 1018.2
20190324165205 54 77 7.0 13.0 0.00 0.00 0.00 38 1018.1
20190324164705 54 141 7.0 11.0 0.00 0.00 0.00 38 1018.1
20190324164205 54 102 7.0 11.0 0.00 0.00 0.00 37 1018.2
20190324163704 54 145 7.0 11.0 0.00 0.00 0.00 37 1018.2
20190324163204 53 96 6.0 10.0 0.00 0.00 0.00 37 1018.2
20190324162704 53 120 5.0 10.0 0.00 0.00 0.00 38 1018.2
20190324162204 52 113 6.0 10.0 0.00 0.00 0.00 37 1018.2
20190324161705 53 126 6.0 10.0 0.00 0.00 0.00 36 1018.1
20190324161204 52 156 6.0 9.0 0.00 0.00 0.00 39 1018.1
20190324160704 51 104 6.0 10.0 0.00 0.00 0.00 40 1018.1
20190324160205 51 134 6.0 10.0 0.00 0.00 0.00 39 1018.1
20190324155704 51 136 6.0 10.0 0.00 0.00 0.00 39 1018.1
20190324155204 51 108 6.0 9.0 0.00 0.00 0.00 40 1018.1
20190324154705 51 120 5.0 8.0 0.00 0.00 0.00 40 1018.1
20190324154205 51 81 5.0 8.0 0.00 0.00 0.00 40 1018.2
20190324153704 51 96 5.0 8.0 0.00 0.00 0.00 40 1018.2
20190324153206 50 113 5.0 9.0 0.00 0.00 0.00 41 1018.3
20190324152704 49 91 5.0 9.0 0.00 0.00 0.00 42 1018.3
20190324152205 49 95 5.0 9.0 0.00 0.00 0.00 41 1018.2
20190324151704 49 79 5.0 5.0 0.00 0.00 0.00 41 1018.2
20190324151204 49 96 4.0 5.0 0.00 0.00 0.00 42 1018.2
20190324150704 48 110 4.0 5.0 0.00 0.00 0.00 44 1018.2
20190324150205 47 105 3.0 5.0 0.00 0.00 0.00 47 1018.2
20190324145705 46 139 3.0 5.0 0.00 0.00 0.00 48 1018.2
20190324145205 46 141 3.0 4.0 0.00 0.00 0.00 50 1018.1
20190324144704 45 145 2.0 5.0 0.00 0.00 0.00 51 1018.1
20190324144205 43 191 1.0 5.0 0.00 0.00 0.00 55 1018.1
20190324143705 41 231 3.0 5.0 0.00 0.00 0.00 58 1018.0
20190324143205 40 232 4.0 5.0 0.00 0.00 0.00 60 1017.8
20190324142705 39 233 4.0 6.0 0.00 0.00 0.00 60 1017.8
20190324142205 38 233 4.0 7.0 0.00 0.00 0.00 59 1018.0
20190324141704 38 234 5.0 8.0 0.00 0.00 0.00 61 1017.8
20190324141205 38 233 6.0 8.0 0.00 0.00 0.00 60 1017.8
20190324140704 38 234 6.0 8.0 0.00 0.00 0.00 60 1017.8
20190324140205 38 241 6.0 7.0 0.00 0.00 0.00 60 1017.7
20190324135705 37 241 5.0 8.0 0.00 0.00 0.00 60 1017.7
20190324135204 37 232 5.0 9.0 0.00 0.00 0.00 62 1017.7
20190324134704 36 230 6.0 9.0 0.00 0.00 0.00 63 1017.7
20190324134205 36 226 7.0 10.0 0.00 0.00 0.00 61 1017.6
20190324133704 36 244 8.0 11.0 0.00 0.00 0.00 61 1017.5
20190324133205 36 242 8.0 12.0 0.00 0.00 0.00 62 1017.5
20190324132704 35 240 9.0 12.0 0.00 0.00 0.00 62 1017.5
20190324132205 35 238 9.0 12.0 0.00 0.00 0.00 63 1017.3
20190324131704 35 242 10.0 12.0 0.00 0.00 0.00 63 1017.3
20190324131205 35 240 10.0 12.0 0.00 0.00 0.00 63 1017.2
20190324130705 34 240 11.0 12.0 0.00 0.00 0.00 64 1017.2
20190324130205 34 240 10.0 11.0 0.00 0.00 0.00 64 1017.2
20190324125705 34 238 9.0 9.0 0.00 0.00 0.00 64 1017.2
20190324125205 34 243 8.0 9.0 0.00 0.00 0.00 64 1017.2
20190324124705 34 240 7.0 10.0 0.00 0.00 0.00 63 1017.1
20190324124205 34 236 7.0 10.0 0.00 0.00 0.00 63 1017.0
20190324123705 34 229 8.0 10.0 0.00 0.00 0.00 64 1017.0
20190324123205 34 236 7.0 8.0 0.00 0.00 0.00 64 1017.0
20190324122704 34 241 7.0 8.0 0.00 0.00 0.00 64 1016.9
20190324122205 33 236 7.0 8.0 0.00 0.00 0.00 65 1016.9
20190324121705 33 240 7.0 8.0 0.00 0.00 0.00 65 1016.9
20190324121205 33 243 7.0 10.0 0.00 0.00 0.00 66 1017.0
20190324120704 33 242 6.0 10.0 0.00 0.00 0.00 67 1017.0
20190324120205 33 240 6.0 10.0 0.00 0.00 0.00 68 1017.0
20190324115705 33 234 7.0 10.0 0.00 0.00 0.00 70 1017.0
20190324115204 33 234 7.0 9.0 0.00 0.00 0.00 70 1017.0
20190324114705 33 239 6.0 8.0 0.00 0.00 0.00 70 1017.0
20190324114205 33 234 5.0 8.0 0.00 0.00 0.00 69 1017.1
20190324113705 33 235 6.0 8.0 0.00 0.00 0.00 68 1017.0
20190324113205 33 238 5.0 7.0 0.00 0.00 0.00 67 1016.9
20190324112705 33 246 5.0 7.0 0.00 0.00 0.00 67 1016.9
20190324112205 33 240 3.0 7.0 0.00 0.00 0.00 65 1016.9
20190324111705 33 236 3.0 8.0 0.00 0.00 0.00 65 1016.7
20190324111205 33 236 4.0 10.0 0.00 0.00 0.00 65 1016.7
20190324110704 32 241 6.0 10.0 0.00 0.00 0.00 66 1016.7
20190324110205 32 245 8.0 10.0 0.00 0.00 0.00 67 1016.7
20190324105704 32 246 8.0 10.0 0.00 0.00 0.00 67 1016.6
20190324105204 33 240 7.0 10.0 0.00 0.00 0.00 66 1016.6
20190324104705 33 244 7.0 10.0 0.00 0.00 0.00 65 1016.6
20190324104204 33 239 7.0 9.0 0.00 0.00 0.00 65 1016.5
20190324103704 33 237 7.0 10.0 0.00 0.00 0.00 67 1016.4
20190324103205 33 236 8.0 10.0 0.00 0.00 0.00 67 1016.5
20190324102704 33 239 8.0 10.0 0.00 0.00 0.00 67 1016.4
20190324102205 33 248 8.0 10.0 0.00 0.00 0.00 68 1016.3
20190324101704 33 242 8.0 10.0 0.00 0.00 0.00 69 1016.4
20190324101204 32 240 8.0 10.0 0.00 0.00 0.00 69 1016.4
20190324100704 32 244 7.0 10.0 0.00 0.00 0.00 69 1016.3
20190324100205 33 244 7.0 11.0 0.00 0.00 0.00 69 1016.4
20190324095705 32 264 8.0 11.0 0.00 0.00 0.00 70 1016.4
20190324095204 32 241 9.0 11.0 0.00 0.00 0.00 70 1016.4
20190324094704 33 246 9.0 11.0 0.00 0.00 0.00 69 1016.4
20190324094205 33 249 8.0 11.0 0.00 0.00 0.00 68 1016.4
20190324093704 33 248 8.0 10.0 0.00 0.00 0.00 67 1016.3
20190324093205 33 246 9.0 11.0 0.00 0.00 0.00 68 1016.3
20190324092705 33 240 9.0 11.0 0.00 0.00 0.00 68 1016.3
20190324092205 33 240 9.0 11.0 0.00 0.00 0.00 70 1016.4
20190324091705 33 242 8.0 9.0 0.00 0.00 0.00 72 1016.3
20190324091204 32 231 7.0 9.0 0.00 0.00 0.00 74 1016.3
20190324090704 31 224 8.0 10.0 0.00 0.00 0.00 76 1016.4
20190324090204 31 232 8.0 10.0 0.00 0.00 0.00 77 1016.4
20190324085704 31 236 8.0 10.0 0.00 0.00 0.00 79 1016.4
20190324085204 31 238 8.0 10.0 0.00 0.00 0.00 81 1016.4
20190324084704 31 241 6.0 8.0 0.00 0.00 0.00 80 1016.4
20190324084204 31 240 5.0 8.0 0.00 0.00 0.00 80 1016.5
20190324083705 31 219 6.0 9.0 0.00 0.00 0.00 81 1016.5
20190324083204 31 239 7.0 9.0 0.00 0.00 0.00 81 1016.5
20190324082704 31 242 7.0 9.0 0.00 0.00 0.00 82 1016.6
20190324082205 32 244 6.0 10.0 0.00 0.00 0.00 82 1016.5
20190324081704 32 252 7.0 10.0 0.00 0.00 0.00 83 1016.6
20190324081205 33 248 7.0 10.0 0.00 0.00 0.00 83 1016.6
20190324080704 33 249 8.0 11.0 0.00 0.00 0.00 84 1016.6
20190324080205 33 253 9.0 11.0 0.00 0.00 0.00 86 1016.6
20190324075705 33 251 8.0 11.0 0.00 0.00 0.00 87 1016.6
20190324075205 34 241 8.0 11.0 0.00 0.00 0.00 87 1016.6
20190324074705 34 214 8.0 11.0 0.00 0.00 0.00 87 1016.6
20190324074205 35 217 8.0 11.0 0.00 0.00 0.00 89 1016.7
20190324073705 34 213 8.0 12.0 0.00 0.00 0.00 89 1016.7
20190324073204 34 228 8.0 12.0 0.00 0.00 0.00 90 1016.9
20190324072704 34 239 7.0 10.0 0.00 0.00 0.00 91 1016.7
20190324072204 33 228 6.0 7.0 0.00 0.00 0.00 90 1016.7
20190324071705 33 219 6.0 9.0 0.00 0.00 0.00 90 1016.7
20190324071205 33 214 6.0 9.0 0.00 0.00 0.00 90 1016.7
20190324070704 33 207 6.0 9.0 0.00 0.00 0.00 90 1016.7
20190324070204 33 214 7.0 9.0 0.00 0.00 0.00 90 1016.7
20190324065705 33 204 7.0 13.0 0.00 0.00 0.00 90 1016.9
20190324065205 33 202 8.0 13.0 0.00 0.00 0.00 89 1017.0
20190324064705 33 198 10.0 13.0 0.00 0.00 0.00 90 1017.0
20190324064204 33 193 10.0 12.0 0.00 0.00 0.00 90 1017.0
20190324063705 33 184 9.0 12.0 0.00 0.00 0.00 90 1017.0
20190324063204 33 187 9.0 10.0 0.00 0.00 0.00 89 1017.1
20190324062705 33 186 8.0 10.0 0.00 0.00 0.00 89 1017.2
20190324062204 34 184 8.0 10.0 0.00 0.00 0.00 89 1017.2